[[{"header":{"parameterUnit":"m.s-1","parameterCategory":1,"la1":30.2991,"la2":30.254,"lo1":-89.0895,"lo2":-89.0444,"dy":0.0017,"dx":0.0017,"nx":28,"ny":28,"refTime":"2024-12-16T03:00:00:Z","depth":0,"parameterNumber":2,"parameterNumberName":"U-component_of_WINDS"},"data":[0,0,0,0,0,0,0,0,0,0,0,0,0,0,0,0,0,0,0,0,0,0,0,0,0,0,0,0,0,0,0,0,0,0,0,0,0,0,0,0,0,0,0,0,0,0,0,0,0,0,0,0,0,0,0,0,0,0,-1.6217,-1.6217,0,-1.6217,-1.6217,-1.6217,-1.6155,-1.6153,-1.6152,-1.615,-1.6152,-1.6153,-1.6155,0,0,0,0,0,0,0,0,0,0,0,0,0,-1.6165,-1.6166,-1.6217,-1.6217,-1.6217,-1.6217,-1.6217,-1.6217,-1.6155,-1.6153,-1.6151,-1.6149,-1.6151,-1.6153,-1.6155,0,0,0,0,0,0,0,0,0,0,0,0,0,-1.6179,-1.6167,-1.6217,-1.6186,-1.6183,-1.6217,-1.6217,-1.6217,-1.6156,-1.6153,-1.6151,-1.6149,-1.6151,-1.6153,-1.6155,-1.6218,0,0,-1.6162,-1.6163,0,0,0,0,0,0,0,0,-1.6178,-1.6181,-1.619,-1.6188,-1.6185,-1.6183,-1.6199,-1.6217,-1.6156,-1.6166,-1.615,-1.6147,-1.6164,-1.6165,-1.6171,-1.6218,-1.6218,-1.6162,-1.6164,-1.6165,-1.6166,0,0,0,0,0,0,0,-1.6177,-1.618,-1.6217,-1.6191,-1.6187,-1.6173,-1.6172,-1.6202,-1.6179,-1.6165,-1.6161,-1.6161,-1.6162,-1.6169,-1.617,-1.6218,-1.6162,-1.6165,-1.6166,-1.6167,-1.632,-1.6322,0,0,0,0,0,0,-1.618,-1.618,-1.6217,-1.6217,-1.6175,-1.6176,-1.6175,-1.6186,-1.6178,-1.6175,-1.6164,-1.6159,-1.6166,-1.6168,-1.617,-1.6245,-1.6165,-1.6167,-1.6168,-1.6317,-1.632,-1.6323,0,0,0,0,0,0,-1.6179,-1.6184,-1.6217,-1.6197,-1.62,-1.6179,-1.6193,-1.6188,-1.6194,-1.6177,-1.6173,-1.6174,-1.6164,-1.6167,-1.6207,-1.6244,-1.6168,-1.617,-1.6314,-1.6318,-1.6322,-1.6395,0,0,0,0,0,0,-1.6178,-1.6184,-1.6208,-1.6198,-1.6201,-1.6253,-1.6195,-1.6189,-1.6198,-1.6191,-1.6186,-1.6183,-1.6162,-1.6204,-1.6209,-1.6246,-1.6172,-1.6311,-1.6316,-1.6321,-1.6389,-1.6401,-1.6411,0,0,0,0,0,-1.6177,-1.6228,-1.6209,-1.6214,-1.623,-1.6256,-1.6258,-1.6233,-1.6201,-1.6225,-1.6214,-1.6183,-1.6239,-1.6209,-1.6214,-1.6252,-1.6308,-1.6314,-1.632,-1.6384,-1.6399,-1.6411,0,0,0,0,0,0,-1.6243,-1.6226,-1.6205,-1.6255,-1.6257,-1.6245,-1.6274,-1.6248,-1.626,-1.6253,-1.6222,-1.6221,-1.6267,-1.6263,-1.623,-1.6314,-1.6268,-1.6276,-1.6315,-1.6329,-1.6339,-1.634,-1.6174,0,0,0,0,0,-1.6263,-1.6285,-1.6269,-1.6315,-1.6317,-1.6296,-1.6306,-1.6286,-1.6287,-1.6288,-1.628,-1.6283,-1.6302,-1.6315,-1.633,-1.6388,-1.6387,-1.6417,-1.6428,-1.6437,-1.6444,-1.6476,-1.649,-1.6343,-1.6343,-1.6343,0,0,-1.6305,-1.6299,-1.6315,-1.6328,-1.6327,-1.6351,-1.6297,-1.6324,-1.6342,-1.6292,-1.6331,-1.6325,-1.6326,-1.6376,-1.6397,-1.6374,-1.6485,-1.6445,-1.6452,-1.6454,-1.6484,-1.6498,-1.651,-1.6347,-1.6346,-1.6346,0,0,-1.6395,-1.6392,-1.643,-1.6431,-1.6431,-1.6416,-1.6426,-1.6418,-1.6412,-1.645,-1.6414,-1.6435,-1.6466,-1.6469,-1.6475,-1.6567,-1.6539,-1.6573,-1.6631,-1.6662,-1.6674,-1.6684,-1.6719,-1.6732,-1.658,-1.658,-1.658,0,-1.6449,-1.6483,-1.6454,-1.6484,-1.6491,-1.6447,-1.6487,-1.6489,-1.6494,-1.6501,-1.6474,-1.6514,-1.6512,-1.6562,-1.6585,-1.659,-1.6601,-1.6574,-1.6675,-1.6685,-1.6694,-1.6727,-1.674,-1.6584,-1.6584,-1.6583,-1.6583,0,-1.6549,-1.6573,-1.6604,-1.6611,-1.6621,-1.6656,-1.6633,-1.6648,-1.6627,-1.6616,-1.6656,-1.6651,-1.6666,-1.6676,-1.6656,-1.6725,-1.6711,-1.668,-1.6634,-1.6712,-1.6743,-1.6755,-1.659,-1.6589,-1.6587,-1.6586,0,0,-1.6682,-1.6672,-1.6684,-1.6687,-1.6684,-1.6702,-1.6735,-1.675,-1.6764,-1.6768,-1.6797,-1.6825,-1.6797,-1.6803,-1.6783,-1.6811,-1.6887,-1.6777,-1.6776,-1.6799,-1.6964,-1.6989,-1.7004,-1.6867,-1.6869,-1.6871,-1.6965,0,-1.6771,-1.6826,-1.6802,-1.6861,-1.6884,-1.6842,-1.6871,-1.6873,-1.6863,-1.6882,-1.6871,-1.6893,-1.6852,-1.6856,-1.6882,-1.6872,-1.692,-1.6865,-1.6895,-1.6896,-1.6898,-1.702,-1.7046,-1.7134,-1.6976,-1.6978,-1.698,0,-1.6882,-1.6892,-1.6954,-1.6947,-1.6956,-1.6983,-1.6995,-1.7012,-1.7014,-1.7005,-1.7013,-1.6987,-1.702,-1.6973,-1.7019,-1.6982,-1.6993,-1.699,-1.6993,-1.6996,-1.6944,-1.7029,-1.7161,-1.7176,-1.6998,-1.6996,-1.6995,0,-1.6976,-1.7004,-1.7045,-1.7049,-1.7042,-1.7062,-1.706,-1.7059,-1.707,-1.708,-1.7087,-1.7101,-1.7109,-1.7121,-1.71,-1.7067,-1.715,-1.7101,-1.7146,-1.7146,-1.7167,-1.7166,-1.7305,-1.717,-1.717,-1.717,-1.7169,0,-1.7079,-1.7119,-1.7087,-1.7113,-1.7157,-1.7127,-1.7172,-1.7165,-1.7165,-1.7189,-1.7153,-1.7177,-1.7147,-1.7168,-1.7151,-1.7193,-1.7197,-1.7192,-1.7187,-1.7196,-1.7197,-1.7205,-1.7199,-1.7173,-1.7172,-1.7172,-1.7171,0,-1.7192,-1.7172,-1.7214,-1.7204,-1.7203,-1.7236,-1.7228,-1.7251,-1.7239,-1.727,-1.7276,-1.7257,-1.728,-1.726,-1.7281,-1.7271,-1.7327,-1.7313,-1.7327,-1.7324,-1.7371,-1.7368,-1.7521,-1.7541,-1.7391,-1.7393,-1.7394,0,-1.726,-1.729,-1.7283,-1.7297,-1.7297,-1.7319,-1.733,-1.7303,-1.7316,-1.732,-1.7344,-1.7363,-1.7378,-1.7417,-1.7406,-1.7423,-1.741,-1.7463,-1.7412,-1.7421,-1.7414,-1.7413,-1.7417,-1.7474,-1.7476,-1.7477,-1.7478,0,-1.7384,-1.7373,-1.739,-1.7404,-1.7418,-1.7427,-1.7434,-1.7447,-1.7419,-1.7436,-1.7459,-1.747,-1.7493,-1.7514,-1.7527,-1.7526,-1.7499,-1.7494,-1.7505,-1.7516,-1.7524,-1.7523,-1.7357,-1.7491,-1.749,-1.7489,-1.7488,-1.7487,-1.7478,-1.7504,-1.7503,-1.7524,-1.7526,-1.7533,-1.7556,-1.7546,-1.7565,-1.7581,-1.7563,-1.7592,-1.7594,-1.7609,-1.7611,-1.7634,-1.7612,-1.7628,-1.7633,-1.7638,-1.7646,-1.7519,-1.7636,-1.7635,-1.7635,-1.7635,-1.7634,0,-1.7603,-1.76,-1.7619,-1.763,-1.7647,-1.7618,-1.7624,-1.764,-1.7666,-1.7669,-1.7684,-1.7712,-1.7732,-1.7722,-1.774,-1.776,-1.7748,-1.7766,-1.7766,-1.7766,-1.7663,-1.7652,-1.7776,-1.7776,-1.7776,-1.7776,-1.7776,-1.7776,-1.767,-1.7711,-1.77,-1.7743,-1.774,-1.7768,-1.7775,-1.7782,-1.7785,-1.7817,-1.7833,-1.7827,-1.7825,-1.7843,-1.7861,-1.7857,-1.7867,-1.789,-1.7883,-1.7787,-1.7773,-1.776,-1.775,-1.7892,-1.7892,-1.7984,-1.7985,-1.7985]},{"header":{"parameterUnit":"m.s-1","parameterCategory":1,"la1":30.2991,"la2":30.254,"lo1":-89.0895,"lo2":-89.0444,"dy":0.0017,"dx":0.0017,"nx":28,"ny":28,"refTime":"2024-12-16T03:00:00:Z","depth":0,"parameterNumber":3,"parameterNumberName":"V-component_of_WINDS"},"data":[0,0,0,0,0,0,0,0,0,0,0,0,0,0,0,0,0,0,0,0,0,0,0,0,0,0,0,0,0,0,0,0,0,0,0,0,0,0,0,0,0,0,0,0,0,0,0,0,0,0,0,0,0,0,0,0,0,0,-0.5523,-0.5523,0,-0.5575,-0.5576,-0.5576,-0.5558,-0.5557,-0.5555,-0.5554,-0.5609,-0.5611,-0.5614,0,0,0,0,0,0,0,0,0,0,0,0,0,-0.5406,-0.5408,-0.5523,-0.5523,-0.5524,-0.5575,-0.5576,-0.5576,-0.5558,-0.5557,-0.5555,-0.5554,-0.5608,-0.5611,-0.5614,0,0,0,0,0,0,0,0,0,0,0,0,0,-0.5457,-0.5409,-0.5522,-0.5521,-0.5521,-0.5575,-0.5576,-0.5577,-0.5558,-0.5557,-0.5555,-0.5553,-0.5607,-0.5611,-0.5615,-0.5673,0,0,-0.5626,-0.5628,0,0,0,0,0,0,0,0,-0.5455,-0.5462,-0.552,-0.5521,-0.5522,-0.5558,-0.5555,-0.5609,-0.5559,-0.5544,-0.5554,-0.5552,-0.5594,-0.5598,-0.5612,-0.5676,-0.5678,-0.5627,-0.5629,-0.5631,-0.5632,0,0,0,0,0,0,0,-0.5451,-0.5459,-0.5543,-0.5521,-0.5522,-0.5517,-0.5523,-0.5565,-0.5578,-0.5545,-0.5544,-0.5551,-0.5594,-0.5608,-0.5613,-0.5679,-0.5627,-0.563,-0.5632,-0.5634,-0.5793,-0.5795,0,0,0,0,0,0,-0.5447,-0.5457,-0.5542,-0.5545,-0.5483,-0.5521,-0.5527,-0.5548,-0.5578,-0.558,-0.5552,-0.5549,-0.5603,-0.5609,-0.5615,-0.5686,-0.5631,-0.5634,-0.5636,-0.5791,-0.5793,-0.5796,0,0,0,0,0,0,-0.5445,-0.5455,-0.554,-0.55,-0.5511,-0.5525,-0.5549,-0.555,-0.5565,-0.5583,-0.5585,-0.5565,-0.5602,-0.561,-0.5659,-0.5688,-0.5636,-0.5639,-0.5789,-0.5792,-0.5795,-0.5829,0,0,0,0,0,0,-0.5441,-0.5454,-0.5477,-0.5501,-0.5513,-0.5583,-0.555,-0.5552,-0.5572,-0.5569,-0.5595,-0.5598,-0.5601,-0.5653,-0.5663,-0.5692,-0.5642,-0.5786,-0.579,-0.5794,-0.5825,-0.5833,-0.5839,0,0,0,0,0,-0.5437,-0.5485,-0.5478,-0.5489,-0.5542,-0.5584,-0.5591,-0.5593,-0.5574,-0.5597,-0.5608,-0.5597,-0.5682,-0.5658,-0.5669,-0.57,-0.5785,-0.5789,-0.5793,-0.5822,-0.5831,-0.5839,0,0,0,0,0,0,-0.5465,-0.5488,-0.5481,-0.5537,-0.5559,-0.5581,-0.5611,-0.5603,-0.5631,-0.5627,-0.5628,-0.5634,-0.5685,-0.5697,-0.567,-0.5758,-0.5731,-0.5737,-0.5749,-0.5758,-0.5764,-0.5762,-0.5645,0,0,0,0,0,-0.5477,-0.5509,-0.5528,-0.5576,-0.5587,-0.5597,-0.5616,-0.5615,-0.5638,-0.5647,-0.5661,-0.5684,-0.5716,-0.5737,-0.5767,-0.5826,-0.5832,-0.5852,-0.5859,-0.5864,-0.5871,-0.5903,-0.5913,-0.581,-0.581,-0.581,0,0,-0.5503,-0.552,-0.5541,-0.5582,-0.5599,-0.5633,-0.5605,-0.5642,-0.5667,-0.5653,-0.57,-0.5711,-0.5736,-0.5791,-0.5815,-0.5802,-0.59,-0.587,-0.5874,-0.5878,-0.5909,-0.5918,-0.5927,-0.5813,-0.5812,-0.5812,0,0,-0.5569,-0.5584,-0.5627,-0.5643,-0.5668,-0.5674,-0.5684,-0.5707,-0.5714,-0.5761,-0.5751,-0.578,-0.5835,-0.5854,-0.587,-0.594,-0.5932,-0.595,-0.5987,-0.6018,-0.6026,-0.6033,-0.606,-0.6069,-0.5956,-0.5956,-0.5956,0,-0.5599,-0.565,-0.5649,-0.5687,-0.5706,-0.5692,-0.5735,-0.5751,-0.5785,-0.5798,-0.5782,-0.585,-0.5866,-0.5925,-0.5942,-0.5955,-0.5967,-0.5948,-0.6025,-0.6032,-0.6039,-0.6064,-0.6074,-0.5958,-0.5958,-0.5958,-0.5957,0,-0.5686,-0.5721,-0.5752,-0.5784,-0.5806,-0.5846,-0.5851,-0.5873,-0.587,-0.5877,-0.5925,-0.5943,-0.5977,-0.599,-0.5988,-0.6048,-0.6039,-0.6024,-0.5997,-0.6051,-0.6075,-0.6084,-0.5961,-0.596,-0.596,-0.5959,0,0,-0.5773,-0.5803,-0.5815,-0.5829,-0.5855,-0.5882,-0.5921,-0.5953,-0.5973,-0.5995,-0.6029,-0.6074,-0.606,-0.6079,-0.6078,-0.6105,-0.6161,-0.6086,-0.6087,-0.6101,-0.623,-0.6243,-0.6254,-0.6154,-0.6156,-0.6157,-0.6228,0,-0.5843,-0.5911,-0.5911,-0.5974,-0.6007,-0.5994,-0.6027,-0.6047,-0.6054,-0.6083,-0.609,-0.6123,-0.6101,-0.6112,-0.6138,-0.6148,-0.6187,-0.6143,-0.6186,-0.6188,-0.6183,-0.6266,-0.628,-0.6347,-0.6237,-0.6239,-0.624,0,-0.5934,-0.5959,-0.6026,-0.6046,-0.606,-0.609,-0.612,-0.6147,-0.6168,-0.6171,-0.6191,-0.6185,-0.6225,-0.6194,-0.6249,-0.6219,-0.6236,-0.6244,-0.6246,-0.6253,-0.6219,-0.6277,-0.6368,-0.6379,-0.6254,-0.6253,-0.6252,0,-0.5993,-0.6043,-0.609,-0.6102,-0.6127,-0.6149,-0.616,-0.6179,-0.6199,-0.6224,-0.6236,-0.6265,-0.6282,-0.6305,-0.6307,-0.6285,-0.6363,-0.6332,-0.6368,-0.6368,-0.6387,-0.6387,-0.6485,-0.6394,-0.6394,-0.6394,-0.6394,0,-0.6072,-0.6114,-0.6117,-0.6146,-0.6192,-0.619,-0.6236,-0.6245,-0.6262,-0.6293,-0.6282,-0.6311,-0.6311,-0.634,-0.6342,-0.6387,-0.6394,-0.6399,-0.6399,-0.6401,-0.6401,-0.6415,-0.6411,-0.6396,-0.6396,-0.6395,-0.6395,0,-0.6147,-0.6151,-0.6201,-0.6219,-0.6224,-0.6258,-0.6274,-0.6301,-0.6306,-0.6345,-0.6354,-0.6362,-0.6396,-0.6399,-0.6439,-0.644,-0.6496,-0.649,-0.6489,-0.6489,-0.6525,-0.6522,-0.6637,-0.6653,-0.655,-0.6551,-0.6551,0,-0.6198,-0.623,-0.6251,-0.6271,-0.6283,-0.6315,-0.6334,-0.6332,-0.6353,-0.6378,-0.6403,-0.6435,-0.6462,-0.6516,-0.6526,-0.6556,-0.6553,-0.6591,-0.6557,-0.6558,-0.6556,-0.6555,-0.6558,-0.6598,-0.6599,-0.66,-0.6601,0,-0.629,-0.629,-0.6318,-0.6346,-0.637,-0.6392,-0.6413,-0.643,-0.643,-0.6454,-0.6488,-0.6508,-0.6548,-0.6581,-0.661,-0.6621,-0.6612,-0.6611,-0.6621,-0.6625,-0.6624,-0.6627,-0.6509,-0.6609,-0.6608,-0.6608,-0.6607,-0.6607,-0.6356,-0.6384,-0.6403,-0.6435,-0.645,-0.6469,-0.6496,-0.6504,-0.6532,-0.6565,-0.6561,-0.66,-0.6619,-0.6657,-0.667,-0.67,-0.6688,-0.6702,-0.6706,-0.671,-0.6715,-0.6616,-0.6705,-0.6705,-0.6705,-0.6704,-0.6704,0,-0.6449,-0.646,-0.6489,-0.6518,-0.6543,-0.653,-0.6552,-0.6574,-0.6607,-0.6626,-0.6651,-0.6691,-0.6722,-0.6733,-0.6764,-0.6785,-0.6782,-0.6794,-0.6794,-0.6797,-0.6723,-0.6713,-0.6796,-0.6796,-0.6796,-0.6796,-0.6796,-0.6796,-0.65,-0.6547,-0.6548,-0.6602,-0.6613,-0.665,-0.6664,-0.6682,-0.6696,-0.6741,-0.6766,-0.6773,-0.6789,-0.682,-0.6848,-0.6851,-0.6863,-0.6878,-0.6879,-0.6811,-0.6802,-0.6793,-0.6783,-0.688,-0.688,-0.695,-0.695,-0.6951]}]]